Location: Burland Observatory
(39.4088°N, 105.4217°W)
Time: 02:10:34
(UTC-07:00)

Vanguard 3 - Pass Details

Date: 10 December 2019
Orbit: 507 x 3264 km, 33.4° (Epoch: 26 January)

Event Time Altitude Azimuth Distance (km) Brightness Sun altitude
Rises 16:21:12 0° 270° (W) 6,809 13.0 2.0°
Reaches altitude 10° 16:30:44 10° 245° (WSW) 6,133 13.9 0.4°
Maximum altitude 16:36:22 12° 228° (SW) 6,026 13.4 -0.5°
Drops below altitude 10° 16:42:04 10° 211° (SSW) 6,147 12.7 -1.5°
Sets 16:51:56 0° 185° (S) 6,830 12.3 -3.2°
